Oakdale, LA

4:26 AM CDT on April 30, 2017 (GMT -0500)
Oakdale

Weather History for KACP - February, 2013

Change the Weather History Date:

Sunday, February 10, 2013

  Actual Average (KPOE) Record (KPOE)
Temperature  
Mean Temperature 68 °F -  
Max Temperature 75 °F 60 °F 78 °F (1999)
Min Temperature 60 °F 42 °F 25 °F (2011)
Cooling Degree Days 2    
Growing Degree Days 18 (Base 50)    
Moisture  
Dew Point 63 °F    
Average Humidity 90    
Maximum Humidity 100    
Minimum Humidity 78    
Precipitation  
Precipitation 0.37 in - - ()
Sea Level Pressure  
Sea Level Pressure 29.90 in    
Wind  
Wind Speed 6 mph (SSE)    
Max Wind Speed 16 mph    
Max Gust Speed 31 mph    
Visibility 8 miles    
Events Rain , Thunderstorm    
Averages and records for this station are not official NWS values.
T = Trace of Precipitation, MM = Missing Value Source: NWS Daily Summary

Daily Weather History Graph

Daily Weather History Graph

Search for Another Location

Airport or City:

Trip Planner

Search our weather history database for the weather conditions in past years. The results will help you decide how hot, cold, wet, or windy it might be!

Date:

Astronomy

Feb. 10, 2013 Rise Set
Actual Time 6:55 AM CST 5:54 PM CST
Civil Twilight 6:30 AM CST 6:19 PM CST
Nautical Twilight 6:02 AM CST 6:48 PM CST
Astronomical Twilight 5:34 AM CST 7:16 PM CST
Moon 6:50 AM CST (2/10) 6:38 PM CST (2/10)
Length of Visible Light 11h 48m
Length of Day
10h 59m
New Moon, 0% of the Moon is Illuminated
Feb 10
New Moon
Feb 17
First Quarter
Feb 25
Full
Mar 4
Last Quarter
Mar 11
New

Hourly Weather History & Observations

Time (CST) Temp. Dew Point Humidity Pressure Visibility Wind Dir Wind Speed Gust Speed Precip Events Conditions
12:15 AM 60.8 °F 57.2 °F 88% 29.98 in 10.0 mi SE 5.8 mph - N/A   Overcast
12:35 AM 60.8 °F 57.2 °F 88% 29.96 in 10.0 mi ESE 5.8 mph - N/A   Overcast
12:55 AM 60.8 °F 59.0 °F 94% 29.96 in 10.0 mi ESE 5.8 mph - N/A   Overcast
1:15 AM 62.6 °F 59.0 °F 88% 29.96 in 10.0 mi ESE 4.6 mph - N/A   Overcast
1:35 AM 60.8 °F 59.0 °F 94% 29.95 in 10.0 mi ESE 5.8 mph - N/A   Overcast
1:55 AM 62.6 °F 59.0 °F 88% 29.95 in 10.0 mi ESE 4.6 mph - N/A   Overcast
2:15 AM 62.6 °F 59.0 °F 88% 29.94 in 10.0 mi ESE 4.6 mph - N/A   Overcast
2:35 AM 62.6 °F 59.0 °F 88% 29.93 in 10.0 mi SE 6.9 mph - N/A   Overcast
2:55 AM 62.6 °F 59.0 °F 88% 29.91 in 7.0 mi SE 8.1 mph - N/A Rain Light Rain
3:15 AM 62.6 °F 59.0 °F 88% 29.90 in 7.0 mi SE 6.9 mph - N/A   Overcast
3:35 AM 62.6 °F 60.8 °F 94% 29.89 in 7.0 mi SE 8.1 mph - N/A   Overcast
3:55 AM 62.6 °F 60.8 °F 94% 29.89 in 7.0 mi ESE 8.1 mph - N/A   Overcast
4:15 AM 62.6 °F 60.8 °F 94% 29.88 in 7.0 mi SE 5.8 mph - N/A   Overcast
4:35 AM 62.6 °F 60.8 °F 94% 29.88 in 5.0 mi SE 4.6 mph - N/A   Overcast
4:55 AM 64.4 °F 62.6 °F 94% 29.88 in 5.0 mi SE 5.8 mph - N/A   Overcast
5:15 AM 64.4 °F 62.6 °F 94% 29.86 in 5.0 mi SE 6.9 mph - N/A   Overcast
5:35 AM 64.4 °F 62.6 °F 94% 29.87 in 5.0 mi SE 5.8 mph - N/A   Overcast
5:55 AM 66.2 °F 64.4 °F 94% 29.86 in 4.0 mi SE 8.1 mph - N/A   Overcast
6:15 AM 66.2 °F 64.4 °F 94% 29.86 in 5.0 mi SSE 5.8 mph - N/A   Overcast
6:35 AM 68.0 °F 66.2 °F 94% 29.85 in 7.0 mi SSE 5.8 mph - N/A   Overcast
6:55 AM 69.8 °F 66.2 °F 88% 29.87 in 7.0 mi South 9.2 mph 16.1 mph N/A   Overcast
7:15 AM 69.8 °F 66.2 °F 88% 29.86 in 7.0 mi SSE 10.4 mph 16.1 mph N/A   Overcast
7:35 AM 71.6 °F 68.0 °F 88% 29.85 in 10.0 mi SSE 9.2 mph 17.3 mph N/A   Overcast
7:55 AM 71.6 °F 68.0 °F 88% 29.86 in 10.0 mi SSE 9.2 mph - N/A   Overcast
8:15 AM 71.6 °F 68.0 °F 88% 29.87 in 10.0 mi South 10.4 mph 20.7 mph N/A   Overcast
8:35 AM 71.6 °F 68.0 °F 88% 29.88 in 10.0 mi SSE 15.0 mph 26.5 mph N/A   Light Drizzle
8:55 AM 71.6 °F 68.0 °F 88% 29.88 in 10.0 mi South 15.0 mph 21.9 mph N/A   Overcast
9:15 AM 71.6 °F 66.2 °F 83% 29.88 in 10.0 mi SSE 13.8 mph 19.6 mph N/A   Overcast
9:35 AM 71.6 °F 66.2 °F 83% 29.88 in 10.0 mi South 10.4 mph 18.4 mph N/A   Overcast
9:55 AM 73.4 °F 68.0 °F 83% 29.87 in 10.0 mi South 15.0 mph 27.6 mph N/A   Overcast
10:15 AM 73.4 °F 68.0 °F 83% 29.86 in 10.0 mi South 10.4 mph 24.2 mph N/A   Mostly Cloudy
10:35 AM 75.2 °F 68.0 °F 78% 29.87 in 10.0 mi South 16.1 mph 27.6 mph N/A   Mostly Cloudy
10:55 AM 75.2 °F 68.0 °F 78% 29.86 in 10.0 mi South 13.8 mph 31.1 mph N/A   Overcast
11:15 AM 75.2 °F 68.0 °F 78% 29.87 in 10.0 mi South 13.8 mph 26.5 mph N/A   Overcast
11:35 AM 75.2 °F 68.0 °F 78% 29.86 in 10.0 mi South 15.0 mph 25.3 mph N/A   Overcast
11:55 AM 73.4 °F 68.0 °F 83% 29.86 in 10.0 mi South 15.0 mph 25.3 mph N/A   Overcast
12:15 PM 73.4 °F 68.0 °F 83% 29.86 in 10.0 mi South 15.0 mph 20.7 mph N/A   Overcast
12:35 PM 73.4 °F 66.2 °F 78% 29.85 in 10.0 mi South 12.7 mph 25.3 mph N/A   Overcast
12:55 PM 71.6 °F 68.0 °F 88% 29.84 in 5.0 mi South 9.2 mph 19.6 mph N/A Rain , Thunderstorm Light Thunderstorms and Rain
1:15 PM 71.6 °F 68.0 °F 88% 29.83 in 7.0 mi South 10.4 mph 25.3 mph 0.01 in Rain Light Rain
1:35 PM 69.8 °F 66.2 °F 88% 29.86 in 4.0 mi WNW 16.1 mph 21.9 mph 0.07 in Rain Light Rain
1:55 PM 64.4 °F 60.8 °F 88% 29.87 in 1.5 mi WSW 6.9 mph 20.7 mph 0.34 in Rain Heavy Rain
2:15 PM 62.6 °F 59.0 °F 88% 29.86 in 7.0 mi West 4.6 mph - 0.02 in Rain Rain
2:35 PM 62.6 °F 60.8 °F 94% 29.87 in 10.0 mi Calm Calm - 0.02 in   Overcast
2:55 PM 62.6 °F 60.8 °F 94% 29.87 in 10.0 mi WSW 3.5 mph - 0.02 in   Overcast
3:15 PM 62.6 °F 60.8 °F 94% 29.87 in 10.0 mi Calm Calm - N/A   Overcast
3:35 PM 62.6 °F 60.8 °F 94% 29.88 in 10.0 mi NW 3.5 mph - N/A   Overcast
3:55 PM 62.6 °F 60.8 °F 94% 29.87 in 10.0 mi Calm Calm - 0.01 in   Overcast
4:15 PM 62.6 °F 60.8 °F 94% 29.88 in 10.0 mi Calm Calm - N/A   Overcast
4:35 PM 62.6 °F 60.8 °F 94% 29.88 in 10.0 mi Calm Calm - N/A   Overcast
4:55 PM 62.6 °F 59.0 °F 88% 29.89 in 10.0 mi Calm Calm - N/A   Overcast
5:15 PM 62.6 °F 60.8 °F 94% 29.90 in 10.0 mi Calm Calm - N/A   Overcast
5:35 PM 62.6 °F 60.8 °F 94% 29.90 in 10.0 mi Calm Calm - N/A Rain Light Rain
5:55 PM 62.6 °F 60.8 °F 94% 29.90 in 10.0 mi Calm Calm - N/A Rain Light Rain
6:15 PM 62.6 °F 60.8 °F 94% 29.91 in 10.0 mi Calm Calm - N/A   Overcast
6:35 PM 62.6 °F 60.8 °F 94% 29.93 in 10.0 mi NW 4.6 mph - N/A   Overcast
6:55 PM 62.6 °F 60.8 °F 94% 29.92 in 10.0 mi Calm Calm - N/A Rain Rain
7:35 PM 62.6 °F 60.8 °F 94% 29.95 in 10.0 mi Calm Calm - N/A   Overcast
8:15 PM 62.6 °F 60.8 °F 94% 29.94 in 10.0 mi Calm Calm - N/A   Overcast
8:35 PM 62.6 °F 60.8 °F 94% 29.94 in 7.0 mi Calm Calm - N/A   Overcast
8:55 PM 62.6 °F 60.8 °F 94% 29.96 in 7.0 mi Calm Calm - N/A   Overcast
9:55 PM 62.6 °F 60.8 °F 94% 29.98 in 7.0 mi Calm Calm - N/A   Overcast
10:35 PM 60.8 °F 60.8 °F 100% 29.98 in 5.0 mi Calm Calm - N/A   Overcast
10:55 PM 62.6 °F 60.8 °F 94% 29.97 in 5.0 mi Calm Calm - N/A   Overcast
11:15 PM 60.8 °F 60.8 °F 100% 29.96 in 4.0 mi Calm Calm - N/A   Overcast
11:35 PM 62.6 °F 60.8 °F 94% 29.99 in 7.0 mi Calm Calm - N/A   Overcast
11:55 PM 62.6 °F 60.8 °F 94% 29.97 in 7.0 mi Calm Calm - N/A   Overcast